Dalhart, TX

4:36 AM CST on February 22, 2017 (GMT -0600)
Dalhart Municipal

Weather History for KDHT - April, 2012

Change the Weather History Date:

Saturday, April 7, 2012

  Actual Average Record
Temperature  
Mean Temperature 53 °F 51 °F  
Max Temperature 63 °F 67 °F 88 °F (1952)
Min Temperature 43 °F 35 °F 22 °F (2009)
Degree Days  
Heating Degree Days 12 14  
Month to date heating degree days 79 104  
Since 1 July heating degree days 3864 4358  
Cooling Degree Days 0 0  
Month to date cooling degree days 1 0  
Year to date cooling degree days 7 0  
Growing Degree Days 4 (Base 50)    
Moisture  
Dew Point 34 °F    
Average Humidity 57    
Maximum Humidity 96    
Minimum Humidity 18    
Precipitation  
Precipitation 0.00 in 0.03 in 0.24 in (1967)
Month to date precipitation T 0.23  
Year to date precipitation 0.42 2.32  
Snow  
Snow 0.00 in 0.10 in 1.00 in (1973)
Month to date snowfall 0.0 0.5  
Since 1 July snowfall 8.3 18.2  
Snow Depth 0.00 in    
Sea Level Pressure  
Sea Level Pressure 30.13 in    
Wind  
Wind Speed 16 mph (NNE)    
Max Wind Speed 39 mph    
Max Gust Speed 47 mph    
Visibility 7 miles    
Events      
T = Trace of Precipitation, MM = Missing Value Source: NWS Daily Summary

Daily Weather History Graph

Daily Weather History Graph

Search for Another Location

Airport or City:

Trip Planner

Search our weather history database for the weather conditions in past years. The results will help you decide how hot, cold, wet, or windy it might be!

Date:

Astronomy

Apr. 07, 2012 Rise Set
Actual Time 7:27 AM CDT 8:17 PM CDT
Civil Twilight 7:01 AM CDT 8:43 PM CDT
Nautical Twilight 6:30 AM CDT 9:14 PM CDT
Astronomical Twilight 5:58 AM CDT 9:46 PM CDT
Moon 9:49 PM CDT (4/7) 7:44 AM CDT (4/7)
Length of Visible Light 13h 42m
Length of Day
12h 50m
Full, 99% of the Moon is Illuminated
Apr 7
Full
Apr 13
Last Quarter
Apr 21
New
Apr 29
First Quarter
May 5
Full

Hourly Weather History & Observations

Time (CDT) Temp. Windchill Dew Point Humidity Pressure Visibility Wind Dir Wind Speed Gust Speed Precip Events Conditions
12:53 AM 57.0 °F - 53.1 °F 87% 29.86 in 10.0 mi SSE 16.1 mph - N/A   Clear
1:53 AM 55.4 °F - 51.8 °F 88% 29.98 in 9.0 mi SSE 9.2 mph - N/A   Clear
2:53 AM 53.1 °F - 51.1 °F 93% 29.87 in 3.0 mi WNW 5.8 mph - N/A   Clear
3:11 AM 51.8 °F - 50.0 °F 94% 29.98 in 2.0 mi West 4.6 mph - N/A   Clear
3:18 AM 51.8 °F - 50.0 °F 94% 29.98 in 1.5 mi West 4.6 mph - N/A   Clear
3:28 AM 51.8 °F - 50.0 °F 94% 29.98 in 3.0 mi WSW 4.6 mph - N/A   Clear
3:53 AM 51.1 °F - 48.9 °F 92% 29.86 in 2.0 mi WSW 3.5 mph - N/A   Clear
4:01 AM 50.0 °F - 48.2 °F 94% 29.98 in 1.8 mi WSW 4.6 mph - N/A   Clear
4:07 AM 51.8 °F - 50.0 °F 94% 29.99 in 3.0 mi WSW 3.5 mph - N/A   Clear
4:33 AM 53.6 °F - 51.8 °F 94% 30.00 in 1.8 mi West 3.5 mph - N/A   Clear
4:53 AM 51.8 °F - 50.0 °F 94% 30.01 in 1.5 mi West 3.5 mph - N/A   Clear
5:12 AM 51.8 °F - 50.0 °F 94% 30.02 in 3.0 mi NW 5.8 mph - N/A   Clear
5:53 AM 50.0 °F - 48.9 °F 96% 29.93 in 4.0 mi NW 15.0 mph 21.9 mph N/A   Clear
6:53 AM 46.0 °F 37.2 °F 30.0 °F 54% 30.02 in 10.0 mi North 26.5 mph 33.4 mph N/A   Clear
7:53 AM 46.9 °F - 21.0 °F 36% 30.08 in 10.0 mi NNE 29.9 mph 38.0 mph N/A   Clear
8:53 AM 46.9 °F - 19.0 °F 33% 30.17 in 10.0 mi North 31.1 mph 42.6 mph N/A   Clear
9:53 AM 48.9 °F - 15.1 °F 26% 30.21 in 10.0 mi NNE 32.2 mph 41.4 mph N/A   Clear
10:53 AM 51.1 °F - 12.9 °F 22% 30.23 in 10.0 mi NNE 33.4 mph 40.3 mph N/A   Clear
11:53 AM 55.9 °F - 12.9 °F 18% 30.25 in 10.0 mi NNE 26.5 mph 34.5 mph N/A   Clear
12:53 PM 57.9 °F - 15.1 °F 19% 30.25 in 10.0 mi NE 26.5 mph 32.2 mph N/A   Clear
1:53 PM 57.9 °F - 16.0 °F 19% 30.25 in 10.0 mi NE 20.7 mph 32.2 mph N/A   Clear
2:53 PM 60.1 °F - 19.0 °F 20% 30.25 in 10.0 mi ENE 18.4 mph 27.6 mph N/A   Clear
3:53 PM 62.1 °F - 19.9 °F 20% 30.24 in 10.0 mi NE 17.3 mph 28.8 mph N/A   Clear
4:53 PM 61.0 °F - 23.0 °F 23% 30.23 in 10.0 mi ENE 17.3 mph 26.5 mph N/A   Clear
5:53 PM 60.1 °F - 25.0 °F 26% 30.25 in 10.0 mi NE 17.3 mph - N/A   Clear
6:53 PM 57.9 °F - 27.0 °F 31% 30.29 in 10.0 mi ENE 19.6 mph - N/A   Clear
7:53 PM 55.0 °F - 28.0 °F 35% 30.31 in 10.0 mi NE 10.4 mph - N/A   Clear
8:53 PM 50.0 °F - 30.0 °F 46% 30.33 in 10.0 mi NE 9.2 mph - N/A   Clear
9:53 PM 48.0 °F - 30.0 °F 50% 30.37 in 10.0 mi ENE 6.9 mph - N/A   Clear
10:53 PM 46.9 °F - 30.0 °F 52% 30.36 in 10.0 mi NE 6.9 mph - N/A   Clear
11:53 PM 46.9 °F - 30.0 °F 52% 30.35 in 10.0 mi NE 5.8 mph - N/A   Clear